Regional Weather Roundup
Issued by NWS

Home | Current Version | Previous Version | Graphics & Text | Print | Product List | Glossary On
Versions: 1 2 3 4 5 6 7 8 9 10 11 12 13 14 15 16 17 18 19 20 21 22 23 24 25 26 27 28 29 30 31 32 33 34 35 36 37 38 39 40 41 42 43 44 45 46 47 48 49 50
000
ASUS43 KMPX 271101
RWRMN
WEATHER ROUNDUP FOR MINNESOTA
NATIONAL WEATHER SERVICE TWIN CITIES/CHANHASSEN MN
600 AM CDT WED JUL 27 2016


NOTE: "FAIR" INDICATES FEW OR NO CLOUDS BELOW 12,000 FEET WITH NO
SIGNIFICANT WEATHER AND/OR OBSTRUCTIONS TO VISIBILITY. N/A MEANS
CURRENT SKY AND/OR WEATHER CONDITIONS ARE NOT AVAILABLE.

MNZ060>063-068>070-271200-
   Twin Cities Metro

CITY           SKY/WX    TMP DP  RH WIND       PRES   REMARKS
TWIN CITIES    CLOUDY    77  68  73 SW6       29.95F
ST PAUL        CLOUDY    76  69  79 E3        29.95F
CRYSTAL        CLOUDY    75  68  78 SE3       29.93F
BLAINE         MOCLDY    75  70  83 CALM      29.95S
LAKEVILLE      CLOUDY    70  70 100 S3        29.96F
EDEN PRAIRIE   CLOUDY    74  69  85 S6        29.94F
LAKEVILLE      CLOUDY    70  70 100 S3        29.96F
SOUTH ST PAUL  CLOUDY    75  67  76 CALM      29.95S
LAKE ELMO      FAIR      72  70  94 SW3       29.97S
$$
MNZ001>005-007-008-013>017-022>024-027-028-271200-
   Northwest Minnesota

CITY           SKY/WX    TMP DP  RH WIND       PRES   REMARKS
HALLOCK        CLOUDY    59  55  88 N6        30.06S
ROSEAU         CLOUDY    57  52  82 CALM      30.05S
WARROAD        CLOUDY    57  54  88 NW3       30.05S
THIEF RVR FALL CLOUDY    62  56  80 N9        30.04S
CROOKSTON      CLOUDY    63  59  88 NE3       30.03S
FOSSTON        CLOUDY    61  57  88 NE5       30.02S
DETROIT LAKES  CLOUDY    66  63  88 SE3       30.01R
MOORHEAD       DRIZZLE   66  64  94 N5        29.99F
PARK RAPIDS    RAIN      67  63  87 N7        29.99R
MAHNOMEN       FAIR      62  60  93 NE5       30.00R
$$
MNZ006-009>011-018-025>026-271200-
   North Central Minnesota

CITY           SKY/WX    TMP DP  RH WIND       PRES   REMARKS
BAUDETTE       PTCLDY    62  55  77 NE5       30.03R
FLAG ISLAND    CLOUDY    64  55  72 NE7       30.05R
INTL FALLS     CLOUDY    65  57  75 NE3       30.02R
WASKISH        CLOUDY    63  57  82 NE6       30.01F
BIG FORK       CLOUDY    63  61  94 CALM      30.00R
LONGVILLE      CLOUDY    66  66 100 CALM      29.97S
GRAND RAPIDS   CLOUDY    65  61  87 CALM      29.99S
ORR            CLOUDY    61  55  82 CALM      29.99R
COOK           CLOUDY    64  57  77 CALM      30.01R
WALKER         FAIR      65  61  85 N8        29.98S
$$
MNZ012-019>021-037-271200-
   Northeast Minnesota

CITY           SKY/WX    TMP DP  RH WIND       PRES   REMARKS
DULUTH         PTCLDY    66  64  93 SE6       29.98S
ELY            CLOUDY    64  57  77 CALM      30.01S
HIBBING        CLOUDY    63  58  83 CALM      29.99R
EVELETH        MOCLDY    65  55  71 NE5       30.00S
DULUTH HARBOR  MOCLDY    66  64  94 CALM      29.97R
TWO HARBORS    CLOUDY    66  61  82 CALM      29.96S
SILVER BAY     CLOUDY    64  57  77 N3        29.97S
GRAND MARAIS     N/A     69  51  52 VRB7      29.97R
G MARAIS ARPRT CLOUDY    61  48  63 N7        30.03S
$$
MNZ029>031-032-039>041-046>048-054>057-064-271200-
   West Central Minnesota

CITY           SKY/WX    TMP DP  RH WIND       PRES   REMARKS
FERGUS FALLS   MOCLDY    66  66 100 N8        29.97F
WHEATON        CLOUDY    66  64  94 CALM      29.98R
MORRIS         LGT RAIN  64  63  94 SE7       29.93F
ALEXANDRIA     LGT RAIN  68  66  93 SW5       29.99R
ELBOW LAKE     LGT RAIN  65  64  99 N10       29.95F
WADENA         CLOUDY    64  63  94 N6        29.97F
GLENWOOD         N/A     64  63  94 SW7       29.99R
APPLETON       CLOUDY    66  63  88 E3        29.95F
BENSON         LGT RAIN  64  63  94 N5        29.98F
ORTONVILLE     RAIN      66  63  88 NE3       29.93F
MADISON        CLOUDY    66  64  94 N3        29.96S
WILLMAR        FAIR      72  70  94 MISG      30.00R
$$
MNZ033>034-036-042>043-049>051-058-059-271200-
   Central Minnesota

CITY           SKY/WX    TMP DP  RH WIND       PRES   REMARKS
ST CLOUD       MOCLDY    67  67 100 CALM      29.94S
SAUK CENTRE    LGT RAIN  66  65  95 W6        29.98R
PAYNESVILLE    CLOUDY    68  68 100 CALM      29.97R
AITKIN         MOCLDY    63  59  88 CALM      29.95F
PINE RIVER     CLOUDY    64  64 100 CALM      30.01R
BRAINERD       LGT RAIN  64  63  96 CALM      29.96S
STAPLES        CLOUDY    64  64 100 NW12      29.98R
LONG PRAIRIE   LGT RAIN  66  66 100 SW3       29.97R
LITTLE FALLS   CLOUDY    64  63  94 CALM      29.95S FOG
LITCHFIELD     CLOUDY    72  72 100 CALM      29.96R
BUFFALO        CLOUDY    72  69  88 CALM      29.96S
MAPLE LAKE     CLOUDY    72  70  95 CALM      29.96R
HUTCHINSON     CLOUDY    72  70  93 CALM      29.96S
$$
MNZ037-044-045-052-053-271200-
   East Central Minnesota

CITY           SKY/WX    TMP DP  RH WIND       PRES   REMARKS
PRINCETON      MOCLDY    68  66  94 E5        29.95S
MORA           PTCLDY    64  63  94 CALM      29.98R
CAMBRIDGE      CLOUDY    70  61  73 CALM      29.95S
RUSH CITY      CLOUDY    66  64  93 CALM      29.97R
MOOSE LAKE     CLOUDY    61  61 100 CALM      29.95F
HINCKLEY       CLOUDY    64  64 100 E5        29.96S
CLOQUET        CLOUDY    64  61  88 CALM      29.99R
MCGREGOR       CLOUDY    63  61  94 N3        29.98S
$$
MNZ071>073-080-081-089-090-097-098-271200-
   Southwest Minnesota

CITY           SKY/WX    TMP DP  RH WIND       PRES   REMARKS
MONTEVIDEO     CLOUDY    66  66 100 E9        29.97F
GRANITE FALLS  MOCLDY    72  69  91 N5        29.97R
CANBY          CLOUDY    69  65  88 N9        29.98R
MARSHALL       CLOUDY    68  66  93 NW5       29.95R
REDWOOD FALLS  CLOUDY    71  66  84 E3        29.94S
OLIVIA         MOCLDY    70  66  88 S5        29.95R
PIPESTONE      PTCLDY    68  64  88 SW3       29.96R
WINDOM         CLOUDY    70  64  83 S6        29.97S
WORTHINGTON    CLOUDY    69  66  90 S12       29.97F
JACKSON        CLOUDY    70  63  78 S6        29.99R
TRACY          CLOUDY    70  67  92 SW5       29.96R
SLAYTON        CLOUDY    68  65  91 SW7       29.97R
$$
MNZ065>067-074>077-082>085-091>093-271200-
   South Central Minnesota

CITY           SKY/WX    TMP DP  RH WIND       PRES   REMARKS
MANKATO        CLOUDY    70  64  83 S6        29.98S
NEW ULM        PTCLDY    70  68  94 SE3       29.96S
ST JAMES       CLOUDY    63  63 100 SE5       29.98R
FAIRMONT       CLOUDY    66  63  88 S6        29.97S
GLENCOE        CLOUDY    72  71  96 S3        29.95S
FARIBAULT      PTCLDY    68  66  94 E5        29.98S
OWATONNA       CLEAR     66  63  88 CALM      29.99S
WASECA         CLEAR     63  61  94 CALM      30.00S
ALBERT LEA     PTCLDY    66  64  94 CALM      30.00S
$$
MNZ078>079-086>088-094>096-271200-
   Southeast Minnesota

CITY           SKY/WX    TMP DP  RH WIND       PRES   REMARKS
ROCHESTER      CLEAR     64  63  96 S5        30.01F
RED WING       CLOUDY    68  66  94 CALM      29.96S
STANTON        PTCLDY    70  66  88 S3        29.96F
DODGE CENTER   PTCLDY    64  61  88 SE6       29.99F
WINONA         CLEAR     70  68  94 CALM      29.99S
AUSTIN         CLOUDY    64  63  94 CALM      30.00F
PRESTON        CLEAR     64  63  94 SE5       30.02F FOG
$$
ABBREVIATIONS USED IN REMARKS
   TC - TEMPERATURES IN CELSIUS
  WCI - WIND CHILL INDEX
   HX - HEAT INDEX
  VSB - VISIBILITY
$$



USA.gov is the U.S. government's official web portal to all federal, state and local government web resources and services.